Year,Month,Day,Hour,Minute,Value (Times are PST for temperature in C)
2010,06,30,00,00,12.30
2010,06,30,00,01,12.30
2010,06,30,00,02,12.30
2010,06,30,00,03,12.30
2010,06,30,00,04,12.30
2010,06,30,00,05,12.30
2010,06,30,00,06,12.30
2010,06,30,00,07,12.30
2010,06,30,00,08,12.30
2010,06,30,00,09,12.30
2010,06,30,00,10,12.30
2010,06,30,00,11,12.30
2010,06,30,00,12,12.30
2010,06,30,00,13,12.30
2010,06,30,00,14,12.30
2010,06,30,00,15,12.20
2010,06,30,00,16,12.20
2010,06,30,00,17,12.20
2010,06,30,00,18,12.30
2010,06,30,00,19,12.20
2010,06,30,00,20,12.20
2010,06,30,00,21,12.20
2010,06,30,00,22,12.20
2010,06,30,00,23,12.20
2010,06,30,00,24,12.20
2010,06,30,00,25,12.10
2010,06,30,00,26,12.10
2010,06,30,00,27,12.10
2010,06,30,00,28,12.10
2010,06,30,00,29,12.10
2010,06,30,00,30,12.10
2010,06,30,00,31,12.10
2010,06,30,00,32,12.10
2010,06,30,00,33,12.10
2010,06,30,00,34,12.00
2010,06,30,00,35,12.00
2010,06,30,00,36,12.10
2010,06,30,00,37,12.10
2010,06,30,00,38,12.10
2010,06,30,00,39,12.10
2010,06,30,00,40,12.10
2010,06,30,00,41,12.10
2010,06,30,00,42,12.10
2010,06,30,00,43,12.10
2010,06,30,00,44,12.10
2010,06,30,00,45,12.10
2010,06,30,00,46,12.10
2010,06,30,00,47,12.10
2010,06,30,00,48,12.10
2010,06,30,00,49,12.10
2010,06,30,00,50,12.10
2010,06,30,00,51,12.10
2010,06,30,00,52,12.10
2010,06,30,00,53,12.10
2010,06,30,00,54,12.10
2010,06,30,00,55,12.10
2010,06,30,00,56,12.10
2010,06,30,00,57,12.10
2010,06,30,00,58,12.10
2010,06,30,00,59,12.10
2010,06,30,01,00,12.10
2010,06,30,01,01,12.10
2010,06,30,01,02,12.10
2010,06,30,01,03,12.00
2010,06,30,01,04,12.00
2010,06,30,01,05,12.10
2010,06,30,01,06,12.10
2010,06,30,01,07,12.10
2010,06,30,01,08,12.10
2010,06,30,01,09,12.10
2010,06,30,01,10,12.10
2010,06,30,01,11,12.10
2010,06,30,01,12,12.10
2010,06,30,01,13,12.20
2010,06,30,01,14,12.20
2010,06,30,01,15,12.20
2010,06,30,01,16,12.10
2010,06,30,01,17,12.10
2010,06,30,01,18,12.20
2010,06,30,01,19,12.20
2010,06,30,01,20,12.20
2010,06,30,01,21,12.20
2010,06,30,01,22,12.20
2010,06,30,01,23,12.10
2010,06,30,01,24,12.10
2010,06,30,01,25,12.10
2010,06,30,01,26,12.10
2010,06,30,01,27,12.10
2010,06,30,01,28,12.10
2010,06,30,01,29,12.10
2010,06,30,01,30,12.10
2010,06,30,01,31,12.00
2010,06,30,01,32,12.00
2010,06,30,01,33,12.00
2010,06,30,01,34,12.00
2010,06,30,01,35,12.00
2010,06,30,01,36,11.90
2010,06,30,01,37,11.90
2010,06,30,01,38,11.90
2010,06,30,01,39,11.90
2010,06,30,01,40,11.90
2010,06,30,01,41,11.90
2010,06,30,01,42,11.90
2010,06,30,01,43,11.90
2010,06,30,01,44,11.90
2010,06,30,01,45,11.90
2010,06,30,01,46,11.80
2010,06,30,01,47,11.80
2010,06,30,01,48,11.80
2010,06,30,01,49,11.80
2010,06,30,01,50,11.80
2010,06,30,01,51,11.80
2010,06,30,01,52,11.80
2010,06,30,01,53,11.80
2010,06,30,01,54,11.80
2010,06,30,01,55,11.80
2010,06,30,01,56,11.80
2010,06,30,01,57,11.70
2010,06,30,01,58,11.70
2010,06,30,01,59,11.70
2010,06,30,02,00,11.70
2010,06,30,02,01,11.70
2010,06,30,02,02,11.70
2010,06,30,02,03,11.70
2010,06,30,02,04,11.70
2010,06,30,02,05,11.70
2010,06,30,02,06,11.70
2010,06,30,02,07,11.70
2010,06,30,02,08,11.70
2010,06,30,02,09,11.70
2010,06,30,02,10,11.70
2010,06,30,02,11,11.70
2010,06,30,02,12,11.70
2010,06,30,02,13,11.70
2010,06,30,02,14,11.70
2010,06,30,02,15,11.60
2010,06,30,02,16,11.60
2010,06,30,02,17,11.60
2010,06,30,02,18,11.60
2010,06,30,02,19,11.60
2010,06,30,02,20,11.60
2010,06,30,02,21,11.60
2010,06,30,02,22,11.60
2010,06,30,02,23,11.50
2010,06,30,02,24,11.50
2010,06,30,02,25,11.50
2010,06,30,02,26,11.50
2010,06,30,02,27,11.50
2010,06,30,02,28,11.50
2010,06,30,02,29,11.50
2010,06,30,02,30,11.40
2010,06,30,02,31,11.40
2010,06,30,02,32,11.40
2010,06,30,02,33,11.40
2010,06,30,02,34,11.40
2010,06,30,02,35,11.40
2010,06,30,02,36,11.40
2010,06,30,02,37,11.40
2010,06,30,02,38,11.30
2010,06,30,02,39,11.30
2010,06,30,02,40,11.30
2010,06,30,02,41,11.30
2010,06,30,02,42,11.30
2010,06,30,02,43,11.40
2010,06,30,02,44,11.30
2010,06,30,02,45,11.30
2010,06,30,02,46,11.30
2010,06,30,02,47,11.30
2010,06,30,02,48,11.30
2010,06,30,02,49,11.30
2010,06,30,02,50,11.30
2010,06,30,02,51,11.30
2010,06,30,02,52,11.30
2010,06,30,02,53,11.30
2010,06,30,02,54,11.30
2010,06,30,02,55,11.30
2010,06,30,02,56,11.30
2010,06,30,02,57,11.30
2010,06,30,02,58,11.30
2010,06,30,02,59,11.30
2010,06,30,03,00,11.30
2010,06,30,03,01,11.30
2010,06,30,03,02,11.40
2010,06,30,03,03,11.40
2010,06,30,03,04,11.40
2010,06,30,03,05,11.40
2010,06,30,03,06,11.30
2010,06,30,03,07,11.30
2010,06,30,03,08,11.30
2010,06,30,03,09,11.30
2010,06,30,03,10,11.30
2010,06,30,03,11,11.20
2010,06,30,03,12,11.20
2010,06,30,03,13,11.20
2010,06,30,03,14,11.10
2010,06,30,03,15,11.10
2010,06,30,03,16,11.10
2010,06,30,03,17,11.10
2010,06,30,03,18,11.00
2010,06,30,03,19,11.00
2010,06,30,03,20,11.00
2010,06,30,03,21,11.00
2010,06,30,03,22,11.00
2010,06,30,03,23,11.00
2010,06,30,03,24,11.00
2010,06,30,03,25,11.00
2010,06,30,03,26,11.10
2010,06,30,03,27,11.10
2010,06,30,03,28,11.10
2010,06,30,03,29,11.10
2010,06,30,03,30,11.10
2010,06,30,03,31,11.10
2010,06,30,03,32,11.10
2010,06,30,03,33,11.10
2010,06,30,03,34,11.10
2010,06,30,03,35,11.20
2010,06,30,03,36,11.20
2010,06,30,03,37,11.20
2010,06,30,03,38,11.20
2010,06,30,03,39,11.20
2010,06,30,03,40,11.20
2010,06,30,03,41,11.20
2010,06,30,03,42,11.20
2010,06,30,03,43,11.20
2010,06,30,03,44,11.20
2010,06,30,03,45,11.30
2010,06,30,03,46,11.30
2010,06,30,03,47,11.30
2010,06,30,03,48,11.30
2010,06,30,03,49,11.30
2010,06,30,03,50,11.30
2010,06,30,03,51,11.30
2010,06,30,03,52,11.30
2010,06,30,03,53,11.30
2010,06,30,03,54,11.30
2010,06,30,03,55,11.30
2010,06,30,03,56,11.30
2010,06,30,03,57,11.20
2010,06,30,03,58,11.20
2010,06,30,03,59,11.20
2010,06,30,04,00,11.20
2010,06,30,04,01,11.20
2010,06,30,04,02,11.20
2010,06,30,04,03,11.20
2010,06,30,04,04,11.20
2010,06,30,04,05,11.10
2010,06,30,04,06,11.10
2010,06,30,04,07,11.10
2010,06,30,04,08,11.10
2010,06,30,04,09,11.10
2010,06,30,04,10,11.10
2010,06,30,04,11,11.10
2010,06,30,04,12,11.10
2010,06,30,04,13,11.10
2010,06,30,04,14,11.10
2010,06,30,04,15,11.10
2010,06,30,04,16,11.10
2010,06,30,04,17,11.10
2010,06,30,04,18,11.10
2010,06,30,04,19,11.00
2010,06,30,04,20,11.00
2010,06,30,04,21,10.90
2010,06,30,04,22,10.90
2010,06,30,04,23,10.90
2010,06,30,04,24,10.80
2010,06,30,04,25,10.80
2010,06,30,04,26,10.80
2010,06,30,04,27,10.80
2010,06,30,04,28,10.80
2010,06,30,04,29,10.80
2010,06,30,04,30,10.80
2010,06,30,04,31,10.80
2010,06,30,04,32,10.80
2010,06,30,04,33,10.80
2010,06,30,04,34,10.80
2010,06,30,04,35,10.80
2010,06,30,04,36,10.80
2010,06,30,04,37,10.80
2010,06,30,04,38,10.80
2010,06,30,04,39,10.80
2010,06,30,04,40,10.80
2010,06,30,04,41,10.70
2010,06,30,04,42,10.70
2010,06,30,04,43,10.70
2010,06,30,04,44,10.60
2010,06,30,04,45,10.60
2010,06,30,04,46,10.50
2010,06,30,04,47,10.40
2010,06,30,04,48,10.40
2010,06,30,04,49,10.40
2010,06,30,04,50,10.40
2010,06,30,04,51,10.30
2010,06,30,04,52,10.30
2010,06,30,04,53,10.30
2010,06,30,04,54,10.30
2010,06,30,04,55,10.40
2010,06,30,04,56,10.40
2010,06,30,04,57,10.30
2010,06,30,04,58,10.40
2010,06,30,04,59,10.40
2010,06,30,05,00,10.40
2010,06,30,05,01,10.40
2010,06,30,05,02,10.30
2010,06,30,05,03,10.20
2010,06,30,05,04,10.10
2010,06,30,05,05,10.00
2010,06,30,05,06,10.00
2010,06,30,05,07,9.90
2010,06,30,05,08,9.90
2010,06,30,05,09,9.80
2010,06,30,05,10,9.80
2010,06,30,05,11,9.70
2010,06,30,05,12,9.70
2010,06,30,05,13,9.60
2010,06,30,05,14,9.50
2010,06,30,05,15,9.40
2010,06,30,05,16,9.30
2010,06,30,05,17,9.20
2010,06,30,05,18,9.10
2010,06,30,05,19,9.10
2010,06,30,05,20,9.10
2010,06,30,05,21,9.20
2010,06,30,05,22,9.10
2010,06,30,05,23,9.10
2010,06,30,05,24,9.10
2010,06,30,05,25,9.00
2010,06,30,05,26,9.00
2010,06,30,05,27,8.90
2010,06,30,05,28,8.80
2010,06,30,05,29,8.80
2010,06,30,05,30,8.70
2010,06,30,05,31,8.70
2010,06,30,05,32,8.70
2010,06,30,05,33,8.60
2010,06,30,05,34,8.60
2010,06,30,05,35,8.60
2010,06,30,05,36,8.60
2010,06,30,05,37,8.60
2010,06,30,05,38,8.60
2010,06,30,05,39,8.60
2010,06,30,05,40,8.60
2010,06,30,05,41,8.70
2010,06,30,05,42,8.80
2010,06,30,05,43,8.90
2010,06,30,05,44,9.00
2010,06,30,05,45,9.00
2010,06,30,05,46,9.00
2010,06,30,05,47,9.10
2010,06,30,05,48,9.20
2010,06,30,05,49,9.30
2010,06,30,05,50,9.40
2010,06,30,05,51,9.50
2010,06,30,05,52,9.60
2010,06,30,05,53,9.80
2010,06,30,05,54,9.80
2010,06,30,05,55,9.80
2010,06,30,05,56,9.80
2010,06,30,05,57,9.80
2010,06,30,05,58,9.80
2010,06,30,05,59,9.90
2010,06,30,06,00,9.80
2010,06,30,06,01,9.80
2010,06,30,06,02,9.70
2010,06,30,06,03,9.70
2010,06,30,06,04,9.70
2010,06,30,06,05,9.60
2010,06,30,06,06,9.60
2010,06,30,06,07,9.50
2010,06,30,06,08,9.50
2010,06,30,06,09,9.50
2010,06,30,06,10,9.50
2010,06,30,06,11,9.60
2010,06,30,06,12,9.70
2010,06,30,06,13,9.70
2010,06,30,06,14,9.80
2010,06,30,06,15,9.80
2010,06,30,06,16,9.80
2010,06,30,06,17,9.90
2010,06,30,06,18,9.90
2010,06,30,06,19,10.00
2010,06,30,06,20,10.00
2010,06,30,06,21,10.10
2010,06,30,06,22,10.10
2010,06,30,06,23,10.10
2010,06,30,06,24,10.10
2010,06,30,06,25,10.20
2010,06,30,06,26,10.20
2010,06,30,06,27,10.30
2010,06,30,06,28,10.30
2010,06,30,06,29,10.30
2010,06,30,06,30,10.40
2010,06,30,06,31,10.50
2010,06,30,06,32,10.50
2010,06,30,06,33,10.60
2010,06,30,06,34,10.70
2010,06,30,06,35,10.80
2010,06,30,06,36,10.90
2010,06,30,06,37,11.00
2010,06,30,06,38,11.10
2010,06,30,06,39,11.20
2010,06,30,06,40,11.30
2010,06,30,06,41,11.30
2010,06,30,06,42,11.40
2010,06,30,06,43,11.40
2010,06,30,06,44,11.50
2010,06,30,06,45,11.50
2010,06,30,06,46,11.60
2010,06,30,06,47,11.50
2010,06,30,06,48,11.50
2010,06,30,06,49,11.50
2010,06,30,06,50,11.50
2010,06,30,06,51,11.50
2010,06,30,06,52,11.50
2010,06,30,06,53,11.50
2010,06,30,06,54,11.60
2010,06,30,06,55,11.60
2010,06,30,06,56,11.60
2010,06,30,06,57,11.70
2010,06,30,06,58,11.70
2010,06,30,06,59,11.80
2010,06,30,07,00,11.90
2010,06,30,07,01,11.90
2010,06,30,07,02,12.00
2010,06,30,07,03,12.00
2010,06,30,07,04,12.10
2010,06,30,07,05,12.10
2010,06,30,07,06,12.10
2010,06,30,07,07,12.20
2010,06,30,07,08,12.20
2010,06,30,07,09,12.30
2010,06,30,07,10,12.30
2010,06,30,07,11,12.30
2010,06,30,07,12,12.40
2010,06,30,07,13,12.40
2010,06,30,07,14,12.50
2010,06,30,07,15,12.60
2010,06,30,07,16,12.60
2010,06,30,07,17,12.70
2010,06,30,07,18,12.70
2010,06,30,07,19,12.70
2010,06,30,07,20,12.70
2010,06,30,07,21,12.70
2010,06,30,07,22,12.80
2010,06,30,07,23,12.80
2010,06,30,07,24,12.80
2010,06,30,07,25,12.80
2010,06,30,07,26,12.80
2010,06,30,07,27,12.80
2010,06,30,07,28,12.80
2010,06,30,07,29,12.90
2010,06,30,07,30,13.00
2010,06,30,07,31,13.00
2010,06,30,07,32,13.10
2010,06,30,07,33,13.10
2010,06,30,07,34,13.20
2010,06,30,07,35,13.20
2010,06,30,07,36,13.20
2010,06,30,07,37,13.30
2010,06,30,07,38,13.30
2010,06,30,07,39,13.30
2010,06,30,07,40,13.40
2010,06,30,07,41,13.40
2010,06,30,07,42,13.50
2010,06,30,07,43,13.50
2010,06,30,07,44,13.60
2010,06,30,07,45,13.60
2010,06,30,07,46,13.70
2010,06,30,07,47,13.80
2010,06,30,07,48,13.80
2010,06,30,07,49,13.90
2010,06,30,07,50,14.00
2010,06,30,07,51,14.00
2010,06,30,07,52,14.00
2010,06,30,07,53,14.00
2010,06,30,07,54,14.00
2010,06,30,07,55,13.90
2010,06,30,07,56,13.90
2010,06,30,07,57,13.90
2010,06,30,07,58,13.80
2010,06,30,07,59,13.80
2010,06,30,08,00,13.80
2010,06,30,08,01,13.90
2010,06,30,08,02,13.90
2010,06,30,08,03,13.90
2010,06,30,08,04,13.90
2010,06,30,08,05,13.90
2010,06,30,08,06,13.90
2010,06,30,08,07,13.90
2010,06,30,08,08,13.80
2010,06,30,08,09,13.80
2010,06,30,08,10,13.90
2010,06,30,08,11,13.90
2010,06,30,08,12,14.00
2010,06,30,08,13,14.00
2010,06,30,08,14,14.10
2010,06,30,08,15,14.10
2010,06,30,08,16,14.10
2010,06,30,08,17,14.10
2010,06,30,08,18,14.10
2010,06,30,08,19,14.10
2010,06,30,08,20,14.20
2010,06,30,08,21,14.20
2010,06,30,08,22,14.20
2010,06,30,08,23,14.30
2010,06,30,08,24,14.30
2010,06,30,08,25,14.30
2010,06,30,08,26,14.30
2010,06,30,08,27,14.20
2010,06,30,08,28,14.20
2010,06,30,08,29,14.20
2010,06,30,08,30,14.20
2010,06,30,08,31,14.20
2010,06,30,08,32,14.30
2010,06,30,08,33,14.30
2010,06,30,08,34,14.40
2010,06,30,08,35,14.50
2010,06,30,08,36,14.50
2010,06,30,08,37,14.40
2010,06,30,08,38,14.40
2010,06,30,08,39,14.30
2010,06,30,08,40,14.20
2010,06,30,08,41,14.20
2010,06,30,08,42,14.20
2010,06,30,08,43,14.30
2010,06,30,08,44,14.40
2010,06,30,08,45,14.50
2010,06,30,08,46,14.50
2010,06,30,08,47,14.40
2010,06,30,08,48,14.20
2010,06,30,08,49,14.10
2010,06,30,08,50,14.10
2010,06,30,08,51,14.00
2010,06,30,08,52,13.90
2010,06,30,08,53,13.90
2010,06,30,08,54,13.90
2010,06,30,08,55,13.80
2010,06,30,08,56,13.70
2010,06,30,08,57,13.70
2010,06,30,08,58,13.80
2010,06,30,08,59,13.80
2010,06,30,09,00,13.90
2010,06,30,09,01,13.90
2010,06,30,09,02,13.80
2010,06,30,09,03,13.80
2010,06,30,09,04,13.80
2010,06,30,09,05,13.80
2010,06,30,09,06,13.90
2010,06,30,09,07,13.90
2010,06,30,09,08,13.80
2010,06,30,09,09,13.80
2010,06,30,09,10,13.70
2010,06,30,09,11,13.70
2010,06,30,09,12,13.80
2010,06,30,09,13,13.80
2010,06,30,09,14,13.80
2010,06,30,09,15,13.80
2010,06,30,09,16,13.90
2010,06,30,09,17,13.90
2010,06,30,09,18,13.90
2010,06,30,09,19,14.00
2010,06,30,09,20,14.00
2010,06,30,09,21,14.00
2010,06,30,09,22,14.20
2010,06,30,09,23,14.30
2010,06,30,09,24,14.30
2010,06,30,09,25,14.30
2010,06,30,09,26,14.30
2010,06,30,09,27,14.30
2010,06,30,09,28,14.20
2010,06,30,09,29,14.20
2010,06,30,09,30,14.20
2010,06,30,09,31,14.20
2010,06,30,09,32,14.20
2010,06,30,09,33,14.20
2010,06,30,09,34,14.20
2010,06,30,09,35,14.10
2010,06,30,09,36,14.10
2010,06,30,09,37,14.10
2010,06,30,09,38,14.10
2010,06,30,09,39,14.20
2010,06,30,09,40,14.20
2010,06,30,09,41,14.20
2010,06,30,09,42,14.20
2010,06,30,09,43,14.30
2010,06,30,09,44,14.30
2010,06,30,09,45,14.30
2010,06,30,09,46,14.20
2010,06,30,09,47,14.20
2010,06,30,09,48,14.20
2010,06,30,09,49,14.20
2010,06,30,09,50,14.20
2010,06,30,09,51,14.20
2010,06,30,09,52,14.20
2010,06,30,09,53,14.10
2010,06,30,09,54,14.10
2010,06,30,09,55,14.10
2010,06,30,09,56,14.10
2010,06,30,09,57,14.10
2010,06,30,09,58,14.10
2010,06,30,09,59,14.10
2010,06,30,10,00,14.10
2010,06,30,10,01,14.10
2010,06,30,10,02,14.10
2010,06,30,10,03,14.10
2010,06,30,10,04,14.20
2010,06,30,10,05,14.20
2010,06,30,10,06,14.20
2010,06,30,10,07,14.20
2010,06,30,10,08,14.10
2010,06,30,10,09,14.10
2010,06,30,10,10,14.10
2010,06,30,10,11,14.10
2010,06,30,10,12,14.20
2010,06,30,10,13,14.30
2010,06,30,10,14,14.30
2010,06,30,10,15,14.30
2010,06,30,10,16,14.30
2010,06,30,10,17,14.30
2010,06,30,10,18,14.30
2010,06,30,10,19,14.30
2010,06,30,10,20,14.30
2010,06,30,10,21,14.30
2010,06,30,10,22,14.30
2010,06,30,10,23,14.30
2010,06,30,10,24,14.30
2010,06,30,10,25,14.40
2010,06,30,10,26,14.30
2010,06,30,10,27,14.20
2010,06,30,10,28,14.10
2010,06,30,10,29,14.10
2010,06,30,10,30,14.10
2010,06,30,10,31,14.20
2010,06,30,10,32,14.20
2010,06,30,10,33,14.30
2010,06,30,10,34,14.30
2010,06,30,10,35,14.30
2010,06,30,10,36,14.30
2010,06,30,10,37,14.30
2010,06,30,10,38,14.30
2010,06,30,10,39,14.20
2010,06,30,10,40,14.10
2010,06,30,10,41,14.00
2010,06,30,10,42,14.00
2010,06,30,10,43,14.00
2010,06,30,10,44,14.10
2010,06,30,10,45,14.20
2010,06,30,10,46,14.20
2010,06,30,10,47,14.20
2010,06,30,10,48,14.20
2010,06,30,10,49,14.20
2010,06,30,10,50,14.20
2010,06,30,10,51,14.20
2010,06,30,10,52,14.30
2010,06,30,10,53,14.30
2010,06,30,10,54,14.40
2010,06,30,10,55,14.40
2010,06,30,10,56,14.50
2010,06,30,10,57,14.60
2010,06,30,10,58,14.70
2010,06,30,10,59,14.80
2010,06,30,11,00,14.80
2010,06,30,11,01,14.80
2010,06,30,11,02,14.70
2010,06,30,11,03,14.80
2010,06,30,11,04,14.90
2010,06,30,11,05,14.90
2010,06,30,11,06,15.00
2010,06,30,11,07,15.00
2010,06,30,11,08,15.00
2010,06,30,11,09,15.00
2010,06,30,11,10,15.00
2010,06,30,11,11,15.00
2010,06,30,11,12,15.00
2010,06,30,11,13,14.80
2010,06,30,11,14,14.70
2010,06,30,11,15,14.70
2010,06,30,11,16,14.70
2010,06,30,11,17,14.70
2010,06,30,11,18,14.70
2010,06,30,11,19,14.70
2010,06,30,11,20,14.80
2010,06,30,11,21,15.00
2010,06,30,11,22,15.00
2010,06,30,11,23,15.30
2010,06,30,11,24,15.30
2010,06,30,11,25,15.30
2010,06,30,11,26,15.20
2010,06,30,11,27,15.20
2010,06,30,11,28,15.30
2010,06,30,11,29,15.30
2010,06,30,11,30,15.20
2010,06,30,11,31,15.20
2010,06,30,11,32,15.20
2010,06,30,11,33,15.20
2010,06,30,11,34,15.20
2010,06,30,11,35,15.10
2010,06,30,11,36,15.20
2010,06,30,11,37,15.40
2010,06,30,11,38,15.40
2010,06,30,11,39,15.30
2010,06,30,11,40,15.30
2010,06,30,11,41,15.20
2010,06,30,11,42,15.20
2010,06,30,11,43,15.20
2010,06,30,11,44,15.20
2010,06,30,11,45,15.10
2010,06,30,11,46,15.10
2010,06,30,11,47,15.10
2010,06,30,11,48,15.20
2010,06,30,11,49,15.30
2010,06,30,11,50,15.20
2010,06,30,11,51,15.20
2010,06,30,11,52,15.20
2010,06,30,11,53,15.30
2010,06,30,11,54,15.20
2010,06,30,11,55,15.30
2010,06,30,11,56,15.40
2010,06,30,11,57,15.40
2010,06,30,11,58,15.50
2010,06,30,11,59,15.60
2010,06,30,12,00,15.60
2010,06,30,12,01,15.40
2010,06,30,12,02,15.30
2010,06,30,12,03,15.30
2010,06,30,12,04,15.20
2010,06,30,12,05,15.10
2010,06,30,12,06,15.10
2010,06,30,12,07,15.00
2010,06,30,12,08,15.00
2010,06,30,12,09,14.90
2010,06,30,12,10,14.80
2010,06,30,12,11,14.70
2010,06,30,12,12,14.70
2010,06,30,12,13,14.70
2010,06,30,12,14,14.80
2010,06,30,12,15,15.00
2010,06,30,12,16,15.00
2010,06,30,12,17,15.00
2010,06,30,12,18,15.00
2010,06,30,12,19,15.00
2010,06,30,12,20,15.00
2010,06,30,12,21,15.00
2010,06,30,12,22,15.10
2010,06,30,12,23,15.20
2010,06,30,12,24,15.30
2010,06,30,12,25,15.30
2010,06,30,12,26,15.30
2010,06,30,12,27,15.10
2010,06,30,12,28,15.00
2010,06,30,12,29,15.00
2010,06,30,12,30,15.00
2010,06,30,12,31,15.00
2010,06,30,12,32,15.00
2010,06,30,12,33,15.00
2010,06,30,12,34,15.10
2010,06,30,12,35,15.30
2010,06,30,12,36,15.40
2010,06,30,12,37,15.40
2010,06,30,12,38,15.40
2010,06,30,12,39,15.30
2010,06,30,12,40,15.20
2010,06,30,12,41,15.20
2010,06,30,12,42,15.10
2010,06,30,12,43,15.10
2010,06,30,12,44,15.10
2010,06,30,12,45,15.10
2010,06,30,12,46,15.00
2010,06,30,12,47,15.00
2010,06,30,12,48,15.00
2010,06,30,12,49,15.00
2010,06,30,12,50,15.10
2010,06,30,12,51,15.20
2010,06,30,12,52,15.30
2010,06,30,12,53,15.40
2010,06,30,12,54,15.40
2010,06,30,12,55,15.40
2010,06,30,12,56,15.40
2010,06,30,12,57,15.40
2010,06,30,12,58,15.40
2010,06,30,12,59,15.30
2010,06,30,13,00,15.40
2010,06,30,13,01,15.40
2010,06,30,13,02,15.50
2010,06,30,13,03,15.50
2010,06,30,13,04,15.40
2010,06,30,13,05,15.40
2010,06,30,13,06,15.40
2010,06,30,13,07,15.40
2010,06,30,13,08,15.30
2010,06,30,13,09,15.10
2010,06,30,13,10,15.00
2010,06,30,13,11,15.00
2010,06,30,13,12,15.00
2010,06,30,13,13,15.10
2010,06,30,13,14,15.20
2010,06,30,13,15,15.10
2010,06,30,13,16,15.00
2010,06,30,13,17,15.00
2010,06,30,13,18,15.00
2010,06,30,13,19,15.00
2010,06,30,13,20,15.00
2010,06,30,13,21,15.00
2010,06,30,13,22,14.80
2010,06,30,13,23,14.80
2010,06,30,13,24,14.80
2010,06,30,13,25,14.80
2010,06,30,13,26,14.80
2010,06,30,13,27,14.70
2010,06,30,13,28,14.70
2010,06,30,13,29,14.60
2010,06,30,13,30,14.60
2010,06,30,13,31,14.60
2010,06,30,13,32,14.60
2010,06,30,13,33,14.60
2010,06,30,13,34,14.60
2010,06,30,13,35,14.60
2010,06,30,13,36,14.60
2010,06,30,13,37,14.60
2010,06,30,13,38,14.50
2010,06,30,13,39,14.40
2010,06,30,13,40,14.30
2010,06,30,13,41,14.30
2010,06,30,13,42,14.30
2010,06,30,13,43,14.30
2010,06,30,13,44,14.40
2010,06,30,13,45,14.50
2010,06,30,13,46,14.60
2010,06,30,13,47,14.60
2010,06,30,13,48,14.70
2010,06,30,13,49,14.70
2010,06,30,13,50,14.70
2010,06,30,13,51,14.80
2010,06,30,13,52,15.00
2010,06,30,13,53,15.00
2010,06,30,13,54,15.00
2010,06,30,13,55,15.00
2010,06,30,13,56,15.00
2010,06,30,13,57,15.00
2010,06,30,13,58,15.20
2010,06,30,13,59,15.30
2010,06,30,14,00,15.20
2010,06,30,14,01,15.10
2010,06,30,14,02,15.00
2010,06,30,14,03,15.00
2010,06,30,14,04,15.00
2010,06,30,14,05,15.20
2010,06,30,14,06,15.30
2010,06,30,14,07,15.30
2010,06,30,14,08,15.30
2010,06,30,14,09,15.30
2010,06,30,14,10,15.40
2010,06,30,14,11,15.40
2010,06,30,14,12,15.30
2010,06,30,14,13,15.10
2010,06,30,14,14,15.00
2010,06,30,14,15,15.00
2010,06,30,14,16,15.00
2010,06,30,14,17,15.00
2010,06,30,14,18,15.00
2010,06,30,14,19,15.00
2010,06,30,14,20,15.00
2010,06,30,14,21,15.00
2010,06,30,14,22,15.00
2010,06,30,14,23,15.00
2010,06,30,14,24,15.10
2010,06,30,14,25,15.20
2010,06,30,14,26,15.30
2010,06,30,14,27,15.30
2010,06,30,14,28,15.20
2010,06,30,14,29,15.20
2010,06,30,14,30,15.20
2010,06,30,14,31,15.20
2010,06,30,14,32,15.30
2010,06,30,14,33,15.40
2010,06,30,14,34,15.50
2010,06,30,14,35,15.70
2010,06,30,14,36,15.80
2010,06,30,14,37,15.90
2010,06,30,14,38,15.80
2010,06,30,14,39,15.70
2010,06,30,14,40,15.60
2010,06,30,14,41,15.70
2010,06,30,14,42,15.60
2010,06,30,14,43,15.60
2010,06,30,14,44,15.50
2010,06,30,14,45,15.40
2010,06,30,14,46,15.30
2010,06,30,14,47,15.30
2010,06,30,14,48,15.40
2010,06,30,14,49,15.30
2010,06,30,14,50,15.30
2010,06,30,14,51,15.40
2010,06,30,14,52,15.40
2010,06,30,14,53,15.30
2010,06,30,14,54,15.30
2010,06,30,14,55,15.30
2010,06,30,14,56,15.40
2010,06,30,14,57,15.50
2010,06,30,14,58,15.40
2010,06,30,14,59,15.40
2010,06,30,15,00,15.40
2010,06,30,15,01,15.40
2010,06,30,15,02,15.30
2010,06,30,15,03,15.30
2010,06,30,15,04,15.30
2010,06,30,15,05,15.20
2010,06,30,15,06,15.20
2010,06,30,15,07,15.10
2010,06,30,15,08,15.10
2010,06,30,15,09,15.10
2010,06,30,15,10,15.00
2010,06,30,15,11,15.00
2010,06,30,15,12,15.00
2010,06,30,15,13,15.00
2010,06,30,15,14,15.00
2010,06,30,15,15,15.20
2010,06,30,15,16,15.30
2010,06,30,15,17,15.20
2010,06,30,15,18,15.20
2010,06,30,15,19,15.20
2010,06,30,15,20,15.20
2010,06,30,15,21,15.20
2010,06,30,15,22,15.30
2010,06,30,15,23,15.30
2010,06,30,15,24,15.30
2010,06,30,15,25,15.30
2010,06,30,15,26,15.30
2010,06,30,15,27,15.30
2010,06,30,15,28,15.30
2010,06,30,15,29,15.20
2010,06,30,15,30,15.30
2010,06,30,15,31,15.40
2010,06,30,15,32,15.40
2010,06,30,15,33,15.50
2010,06,30,15,34,15.60
2010,06,30,15,35,15.60
2010,06,30,15,36,15.50
2010,06,30,15,37,15.50
2010,06,30,15,38,15.60
2010,06,30,15,39,15.50
2010,06,30,15,40,15.50
2010,06,30,15,41,15.50
2010,06,30,15,42,15.50
2010,06,30,15,43,15.50
2010,06,30,15,44,15.50
2010,06,30,15,45,15.40
2010,06,30,15,46,15.50
2010,06,30,15,47,15.50
2010,06,30,15,48,15.60
2010,06,30,15,49,15.50
2010,06,30,15,50,15.50
2010,06,30,15,51,15.40
2010,06,30,15,52,15.40
2010,06,30,15,53,15.40
2010,06,30,15,54,15.40
2010,06,30,15,55,15.50
2010,06,30,15,56,15.60
2010,06,30,15,57,15.70
2010,06,30,15,58,15.80
2010,06,30,15,59,15.90
2010,06,30,16,00,15.80
2010,06,30,16,01,15.70
2010,06,30,16,02,15.60
2010,06,30,16,03,15.50
2010,06,30,16,04,15.50
2010,06,30,16,05,15.60
2010,06,30,16,06,15.60
2010,06,30,16,07,15.60
2010,06,30,16,08,15.60
2010,06,30,16,09,15.50
2010,06,30,16,10,15.50
2010,06,30,16,11,15.60
2010,06,30,16,12,15.70
2010,06,30,16,13,15.70
2010,06,30,16,14,15.70
2010,06,30,16,15,15.80
2010,06,30,16,16,15.90
2010,06,30,16,17,15.80
2010,06,30,16,18,15.80
2010,06,30,16,19,15.80
2010,06,30,16,20,15.80
2010,06,30,16,21,15.80
2010,06,30,16,22,15.60
2010,06,30,16,23,15.60
2010,06,30,16,24,15.60
2010,06,30,16,25,15.60
2010,06,30,16,26,15.50
2010,06,30,16,27,15.50
2010,06,30,16,28,15.50
2010,06,30,16,29,15.40
2010,06,30,16,30,15.30
2010,06,30,16,31,15.20
2010,06,30,16,32,15.10
2010,06,30,16,33,15.00
2010,06,30,16,34,15.00
2010,06,30,16,35,15.10
2010,06,30,16,36,15.00
2010,06,30,16,37,15.00
2010,06,30,16,38,15.00
2010,06,30,16,39,15.00
2010,06,30,16,40,15.00
2010,06,30,16,41,15.00
2010,06,30,16,42,15.00
2010,06,30,16,43,15.00
2010,06,30,16,44,15.00
2010,06,30,16,45,15.00
2010,06,30,16,46,15.00
2010,06,30,16,47,15.00
2010,06,30,16,48,15.00
2010,06,30,16,49,15.00
2010,06,30,16,50,15.10
2010,06,30,16,51,15.10
2010,06,30,16,52,15.10
2010,06,30,16,53,15.10
2010,06,30,16,54,15.10
2010,06,30,16,55,15.10
2010,06,30,16,56,15.10
2010,06,30,16,57,15.20
2010,06,30,16,58,15.30
2010,06,30,16,59,15.30
2010,06,30,17,00,15.30
2010,06,30,17,01,15.40
2010,06,30,17,02,15.50
2010,06,30,17,03,15.50
2010,06,30,17,04,15.60
2010,06,30,17,05,15.70
2010,06,30,17,06,15.70
2010,06,30,17,07,15.80
2010,06,30,17,08,15.90
2010,06,30,17,09,15.90
2010,06,30,17,10,15.90
2010,06,30,17,11,16.00
2010,06,30,17,12,16.00
2010,06,30,17,13,16.00
2010,06,30,17,14,16.00
2010,06,30,17,15,15.90
2010,06,30,17,16,16.00
2010,06,30,17,17,16.00
2010,06,30,17,18,15.90
2010,06,30,17,19,15.90
2010,06,30,17,20,15.90
2010,06,30,17,21,15.90
2010,06,30,17,22,15.80